Date,TemperatureHighF,TemperatureAvgF,TemperatureLowF,DewpointHighF,DewpointAvgF,DewpointLowF,HumidityHigh,HumidityAvg,HumidityLow,PressureMaxIn,PressureMinIn,WindSpeedMaxMPH,WindSpeedAvgMPH,GustSpeedMaxMPH,PrecipitationSumIn
2013-1-1,37,35,32,36,34,31,100,95,92,30.51,30.36,1,0,0,0.00
2013-1-2,41,34,30,37,32,28,96,93,78,30.36,30.19,1,0,0,0.01
2013-1-3,38,33,28,36,31,27,100,93,84,30.19,30.07,2,0,0,0.12
2013-1-4,41,39,36,40,38,35,96,96,95,30.29,30.12,1,0,0,0.05
2013-1-5,41,40,37,40,39,34,96,95,90,30.17,30.05,4,0,0,0.09
2013-1-6,42,40,38,41,38,35,95,93,84,30.13,29.90,4,0,12,0.29
2013-1-7,49,43,40,46,40,38,96,90,79,30.11,29.75,13,1,22,0.25
2013-1-8,46,41,39,46,39,37,100,94,90,30.13,29.61,10,0,17,2.17
2013-1-9,43,39,31,42,36,29,96,87,73,29.92,29.63,7,1,15,0.11
2013-1-10,40,33,30,35,31,28,95,90,74,30.14,29.91,3,0,0,0.00
2013-1-11,37,30,27,30,27,24,94,88,64,30.32,30.14,1,0,0,0.01
2013-1-12,34,28,24,29,25,23,94,90,76,30.45,30.32,2,0,0,0.01
2013-1-13,35,30,25,30,27,23,94,90,78,30.48,30.43,1,0,0,0.05
2013-1-14,37,34,32,35,32,30,94,94,92,30.57,30.44,0,0,0,0.05
2013-1-15,40,36,34,38,34,32,95,93,89,30.71,30.57,0,0,0,0.00
2013-1-16,38,36,34,35,34,32,94,91,85,30.68,30.53,1,0,0,0.00
2013-1-17,42,34,29,37,32,27,95,92,82,30.54,30.28,2,0,0,0.00
2013-1-18,40,36,34,36,34,33,95,92,85,30.34,30.26,2,0,0,0.00
2013-1-19,42,35,30,37,33,28,94,91,81,30.39,30.33,2,0,0,0.00
2013-1-20,46,33,27,38,30,26,95,90,69,30.39,30.27,2,0,0,0.01
2013-1-21,40,32,27,37,30,26,95,93,87,30.25,30.13,1,0,0,0.01
2013-1-22,40,35,33,37,33,31,95,92,84,30.14,29.91,1,0,0,0.00
2013-1-23,41,38,35,40,37,34,95,94,91,30.08,29.81,5,0,0,0.13
2013-1-24,40,37,31,38,35,29,95,94,88,30.17,29.97,4,0,0,0.17
2013-1-25,48,39,35,45,37,34,96,94,83,30.04,29.87,2,0,0,0.01
2013-1-26,44,39,35,42,37,33,96,94,91,30.00,29.81,0,0,0,0.13
2013-1-27,40,36,32,39,34,30,95,94,92,30.00,29.95,3,0,0,0.00
2013-1-28,44,38,32,39,35,30,95,89,77,30.04,29.96,6,1,14,0.00
2013-1-29,45,43,38,43,40,36,94,89,78,30.28,30.04,6,0,13,0.03
2013-1-30,47,42,37,45,40,36,95,93,91,30.35,30.27,2,0,0,0.04
2013-1-31,48,44,39,46,42,37,96,95,94,30.35,30.26,2,0,0,0.02
2013-2-1,45,41,35,43,39,34,96,93,90,30.42,30.37,1,0,0,0.00
2013-2-2,46,39,35,42,37,33,100,93,82,30.40,30.23,3,0,0,0.00
2013-2-3,43,41,39,41,39,37,95,94,91,30.28,30.16,3,0,0,0.05
2013-2-4,46,42,40,43,40,38,95,93,87,30.16,29.82,2,0,0,0.01
2013-2-5,46,42,39,44,40,37,95,94,92,29.86,29.74,10,0,19,0.28
2013-2-6,44,41,39,42,40,37,100,94,88,29.97,29.68,4,0,0,0.08
2013-2-7,47,40,32,41,35,30,94,85,62,30.19,29.68,7,0,12,0.01
2013-2-8,46,36,29,39,33,27,95,90,74,30.29,30.19,2,0,0,0.02
2013-2-9,44,38,32,40,36,30,100,91,81,30.35,30.25,1,0,0,0.00
2013-2-10,43,40,38,39,38,36,94,91,84,30.37,30.31,1,0,0,0.00
2013-2-11,43,40,36,41,38,34,94,93,90,30.33,30.29,1,0,0,0.02
2013-2-12,46,42,38,44,40,36,95,93,82,30.37,30.20,9,1,18,0.05
2013-2-13,48,43,40,41,38,37,89,82,71,30.47,30.26,9,1,18,0.00
2013-2-14,43,42,40,42,40,37,95,93,88,30.56,30.46,1,0,0,0.25
2013-2-15,46,42,39,44,41,37,95,93,88,30.57,30.16,1,0,0,0.03
2013-2-16,48,43,38,41,38,36,95,83,69,30.17,30.08,9,1,21,0.00
2013-2-17,44,39,34,38,36,32,94,87,70,30.21,30.09,4,0,0,0.01
2013-2-18,42,39,35,40,37,33,95,93,89,30.08,29.73,3,0,0,0.11
2013-2-19,47,40,32,40,36,30,94,87,70,29.98,29.72,3,0,0,0.01
2013-2-20,42,37,30,40,35,29,100,92,85,30.01,29.96,1,0,0,0.02
2013-2-21,43,40,37,40,37,35,94,90,81,30.01,29.95,5,1,13,0.05
2013-2-22,45,39,36,43,36,33,95,90,75,29.99,29.58,10,1,19,0.80
2013-2-23,48,41,35,38,34,31,92,76,58,30.32,29.82,9,1,16,0.00
2013-2-24,44,41,38,40,38,33,93,88,76,30.34,29.82,2,0,0,0.06
2013-2-25,48,41,36,39,35,31,94,79,59,30.26,29.77,15,2,26,0.20
2013-2-26,43,38,33,38,35,31,99,87,75,30.30,30.10,5,0,0,0.08
2013-2-27,45,39,33,42,36,31,94,89,77,30.28,30.15,4,0,0,0.01
2013-2-28,44,41,37,42,39,35,95,94,93,30.26,30.16,1,0,0,0.46
2013-3-1,54,48,44,50,46,42,96,92,85,30.24,30.19,3,0,0,1.00
2013-3-2,51,45,34,48,41,31,95,88,75,30.22,30.02,11,0,13,0.17
2013-3-3,49,38,30,38,32,28,94,82,56,30.30,30.16,5,0,0,0.00
2013-3-4,47,38,30,39,34,29,94,84,65,30.30,29.96,4,0,0,0.00
2013-3-5,44,40,38,39,36,34,93,84,75,29.96,29.75,2,0,0,0.10
2013-3-6,42,40,38,40,38,36,94,93,89,29.85,29.61,2,0,0,0.28
2013-3-7,46,40,33,44,38,31,99,93,89,30.11,29.85,0,0,0,0.06
2013-3-8,49,39,31,41,36,30,95,89,68,30.24,30.09,1,0,0,0.00
2013-3-9,50,39,31,43,36,29,100,88,69,30.48,30.24,4,0,0,0.01
2013-3-10,45,41,35,42,38,33,94,91,85,30.48,30.41,1,0,0,0.02
2013-3-11,48,40,33,41,37,31,95,89,74,30.43,30.10,3,0,0,0.22
2013-3-12,51,46,41,49,44,39,95,93,87,30.10,29.95,6,0,0,1.11
2013-3-13,49,48,47,48,46,45,95,95,94,30.13,30.01,3,0,0,0.38
2013-3-14,50,47,44,49,45,42,95,95,94,30.11,29.96,3,0,0,0.30
2013-3-15,53,46,43,50,44,42,95,93,84,30.19,30.10,3,0,0,0.06
2013-3-16,50,44,37,44,38,31,93,81,59,30.11,29.85,15,1,23,0.00
2013-3-17,48,40,33,34,31,28,89,71,49,30.14,29.93,10,1,17,0.00
2013-3-18,50,40,31,36,33,28,94,76,51,30.23,30.04,14,1,17,0.24
2013-3-19,45,38,30,40,34,28,93,86,65,30.22,29.52,13,0,13,0.10
2013-3-20,48,42,35,44,38,30,95,86,66,29.94,29.26,19,2,27,0.26
2013-3-21,46,38,29,35,31,27,91,78,62,30.20,29.94,14,1,15,0.00
2013-3-22,46,35,27,34,29,25,93,80,48,30.38,30.19,6,0,0,0.00
2013-3-23,47,37,30,36,31,27,93,80,48,30.39,30.31,5,0,0,0.00
2013-3-24,49,39,31,37,32,28,93,79,49,30.31,30.14,4,0,0,0.00
2013-3-25,57,44,33,38,34,27,96,69,34,30.14,29.96,4,0,0,0.00
2013-3-26,57,46,38,42,38,34,90,76,52,30.02,29.97,3,0,0,0.00
2013-3-27,59,46,38,45,40,36,93,80,53,30.00,29.94,4,0,0,0.00
2013-3-28,58,46,38,47,41,36,93,84,63,30.14,30.00,3,0,0,0.00
2013-3-29,61,47,37,49,42,35,94,84,59,30.26,30.14,3,0,0,0.00
2013-3-30,63,48,38,50,42,36,94,81,54,30.27,30.10,5,0,0,0.00
2013-3-31,67,50,38,48,41,36,93,73,43,30.09,29.92,3,0,0,0.00
2013-4-1,62,49,39,50,44,37,98,82,61,30.10,29.94,4,0,0,0.00
2013-4-2,56,47,39,45,42,37,94,83,62,30.18,30.10,6,0,0,0.00
2013-4-3,58,50,44,48,44,42,92,81,59,30.19,29.95,4,0,0,0.00
2013-4-4,51,48,46,48,45,43,95,91,81,29.96,29.56,1,0,0,0.31
2013-4-5,52,48,46,50,46,44,95,93,86,29.81,29.61,5,0,0,0.14
2013-4-6,56,46,42,45,41,36,95,82,51,29.87,29.60,10,1,21,0.15
2013-4-7,49,44,40,45,41,39,94,91,80,29.85,29.57,4,0,0,0.53
2013-4-8,56,44,36,48,41,34,95,87,68,30.23,29.85,3,0,0,0.00
2013-4-9,47,44,38,45,42,36,94,91,86,30.32,30.11,4,0,0,0.03
2013-4-10,53,47,44,46,42,39,95,85,69,30.21,29.85,14,2,23,0.54
2013-4-11,53,45,34,43,38,32,92,77,54,30.28,30.16,6,1,12,0.00
2013-4-12,42,38,34,39,36,32,100,92,82,30.16,29.64,3,0,0,0.28
2013-4-13,53,39,32,43,36,30,94,90,65,29.98,29.71,6,0,19,0.22
2013-4-14,49,40,31,42,36,30,95,89,70,29.99,29.92,2,0,0,0.00
2013-4-15,54,43,34,46,39,32,95,88,64,30.18,29.93,3,0,0,0.18
2013-4-16,59,45,34,44,36,28,95,73,32,30.38,30.18,4,0,0,0.00
2013-4-17,58,47,37,42,35,29,91,67,33,30.41,30.36,6,1,15,0.00
2013-4-18,46,44,41,44,42,37,95,93,74,30.42,30.16,3,0,0,0.14
2013-4-19,56,48,45,52,46,42,96,91,78,30.16,30.05,6,0,0,0.21
2013-4-20,56,49,43,46,41,39,86,74,60,30.24,30.14,14,1,20,0.00
2013-4-21,54,43,34,44,39,32,93,86,64,30.38,30.20,3,0,0,0.10
2013-4-22,60,45,32,44,34,24,94,72,26,30.55,30.38,2,0,0,0.00
2013-4-23,61,46,34,44,37,32,92,72,42,30.42,30.27,5,0,13,0.00
2013-4-24,65,50,37,47,40,34,91,71,43,30.33,30.05,4,0,0,0.00
2013-4-25,65,52,42,48,-4,-100,90,74,45,30.10,30.02,9,0,0,0.00
2013-4-26,69,54,39,50,-37,-100,94,67,29,30.22,30.09,5,0,13,0.00
2013-4-27,61,42,39,-100,-100,-100,94,87,42,30.18,30.09,0,0,0,0.00
2013-4-28,57,46,39,43,-14,-100,94,79,49,30.17,29.89,11,1,17,0.16
2013-4-29,53,45,36,43,35,31,93,69,45,30.14,29.89,12,1,23,0.01
2013-4-30,55,44,35,38,34,30,88,69,43,30.42,30.14,5,0,0,0.00
2013-5-1,59,46,32,42,36,30,91,70,41,30.59,30.43,4,0,0,0.00
2013-5-2,62,50,38,45,39,34,89,68,39,30.56,30.39,3,0,0,0.00
2013-5-3,72,55,41,53,45,38,92,71,40,30.41,30.25,10,0,0,0.00
2013-5-4,76,60,42,51,44,40,90,62,28,30.25,30.00,3,0,0,0.00
2013-5-5,82,64,48,54,48,42,84,59,30,30.01,29.77,2,0,0,0.00
2013-5-6,82,65,50,56,50,45,84,61,35,29.84,29.74,3,0,0,0.00
2013-5-7,74,60,48,55,50,45,90,73,46,29.94,29.77,5,0,0,0.00
2013-5-8,68,56,46,54,49,44,95,80,57,30.11,29.94,7,0,0,0.00
2013-5-9,70,57,45,55,50,44,94,77,48,30.20,30.10,3,0,0,0.00
2013-5-10,71,59,46,57,51,44,93,76,53,30.19,30.10,5,0,0,0.00
2013-5-11,67,58,52,58,52,46,93,80,52,30.14,29.99,3,0,0,0.09
2013-5-12,63,57,54,60,55,50,95,92,82,30.05,29.96,7,0,0,0.20
2013-5-13,58,52,46,53,48,43,94,87,76,30.17,29.90,12,1,20,0.17
2013-5-14,59,52,45,49,44,42,91,77,62,30.21,30.11,5,0,0,0.01
2013-5-15,63,52,47,51,47,44,93,83,57,30.11,29.99,4,0,0,0.06
2013-5-16,65,54,48,54,50,46,94,85,58,30.00,29.88,2,0,0,0.01
2013-5-17,59,53,49,54,50,46,94,90,70,30.02,29.91,4,0,12,0.13
2013-5-18,57,52,48,53,49,46,94,90,79,30.26,30.02,3,0,0,0.06
2013-5-19,65,54,46,52,47,44,93,79,52,30.39,30.26,8,0,12,0.00
2013-5-20,64,53,43,52,46,41,93,79,51,30.33,29.91,3,0,0,0.17
2013-5-21,54,47,42,49,45,40,96,92,81,29.91,29.75,2,0,0,0.24
2013-5-22,60,49,40,49,43,39,98,81,58,29.94,29.82,3,0,0,0.27
2013-5-23,59,50,44,49,44,42,94,82,61,29.97,29.89,7,0,0,0.04
2013-5-24,62,52,42,50,44,40,93,77,54,30.01,29.95,4,0,0,0.00
2013-5-25,60,52,47,52,47,45,93,82,59,30.02,29.97,4,0,0,0.03
2013-5-26,56,51,47,53,49,45,95,93,86,29.98,29.92,2,0,0,0.17
2013-5-27,54,52,49,52,50,48,95,94,91,29.92,29.67,3,0,0,0.19
2013-5-28,56,52,50,52,50,48,95,91,81,29.85,29.72,2,0,0,0.04
2013-5-29,55,51,48,52,48,45,94,88,72,29.94,29.67,5,0,0,0.31
2013-5-30,57,51,47,50,46,43,92,83,73,30.21,29.94,5,0,0,0.06
2013-5-31,64,56,47,50,46,43,92,69,49,30.33,30.21,5,0,12,0.01
2013-6-1,66,56,48,54,49,45,93,77,51,30.24,30.08,2,0,0,0.00
2013-6-2,67,57,50,54,50,48,92,77,58,30.08,30.02,4,0,0,0.00
2013-6-3,69,57,47,54,50,45,93,77,56,30.10,30.05,5,0,0,0.00
2013-6-4,75,61,47,58,50,43,93,70,34,30.14,30.01,4,0,0,0.00
2013-6-5,72,62,52,59,54,48,89,75,57,30.08,30.00,4,0,0,0.00
2013-6-6,77,62,52,57,51,40,93,69,29,30.04,29.96,4,0,0,0.00
2013-6-7,69,59,51,54,50,42,92,71,52,30.11,29.97,12,1,17,0.02
2013-6-8,66,55,46,53,47,42,86,74,57,30.14,30.10,5,0,0,0.00
2013-6-9,67,55,45,52,45,42,92,71,44,30.10,30.01,7,1,13,0.00
2013-6-10,70,56,43,53,45,40,92,68,46,30.02,29.86,10,1,12,0.00
2013-6-11,63,56,49,46,44,41,78,63,50,30.07,29.89,7,1,17,0.00
2013-6-12,62,53,49,53,48,44,93,81,64,30.13,30.07,4,0,0,0.04
2013-6-13,69,57,47,53,48,44,93,73,43,30.18,30.12,9,1,13,0.00
2013-6-14,65,56,49,54,48,45,90,75,63,30.18,30.07,7,0,13,0.00
2013-6-15,70,59,46,56,50,44,93,76,52,30.07,29.93,4,0,0,0.00
2013-6-16,75,62,50,58,52,47,92,70,47,30.04,29.96,6,0,0,0.00
2013-6-17,70,61,50,55,51,46,92,71,52,30.05,29.89,7,0,0,0.05
2013-6-18,68,57,50,57,52,48,93,84,57,29.94,29.89,4,0,0,0.04
2013-6-19,67,57,47,58,49,44,93,78,50,29.97,29.88,7,0,0,0.11
2013-6-20,58,55,53,50,48,46,87,78,71,30.07,29.89,9,1,22,0.06
2013-6-21,65,57,51,56,51,48,90,80,66,30.15,30.07,7,0,0,0.00
2013-6-22,72,60,48,57,51,46,93,75,48,30.11,29.86,4,0,0,0.00
2013-6-23,65,60,54,60,56,50,94,84,76,29.86,29.59,2,0,0,0.05
2013-6-24,64,59,56,58,55,52,95,85,71,29.67,29.52,7,0,12,0.08
2013-6-25,68,59,54,60,54,51,94,86,67,29.79,29.63,3,0,0,0.04
2013-6-26,67,59,54,60,55,51,94,87,71,30.06,29.78,2,0,0,0.06
2013-6-27,66,60,57,62,58,54,94,91,84,30.19,30.03,2,0,0,0.12
2013-6-28,75,65,59,65,60,56,93,84,65,30.19,30.05,3,0,0,0.00
2013-6-29,80,69,60,65,61,58,93,77,52,30.08,29.97,3,0,0,0.00
2013-6-30,88,72,58,67,62,56,95,72,44,30.00,29.85,6,0,0,0.00
2013-7-1,90,75,62,68,62,57,92,68,41,29.97,29.87,5,0,0,0.00
2013-7-2,81,69,55,62,56,50,90,65,39,30.07,29.97,4,0,0,0.00
2013-7-3,77,63,47,56,49,42,85,63,39,30.13,30.01,3,0,0,0.00
2013-7-4,73,62,52,57,51,46,84,68,48,30.07,29.99,4,0,0,0.00
2013-7-5,71,61,50,57,52,48,92,74,56,30.01,29.92,6,0,0,0.00
2013-7-6,79,63,51,60,53,48,92,73,46,29.98,29.84,3,0,0,0.00
2013-7-7,75,64,53,58,55,50,91,73,52,29.92,29.86,4,0,0,0.00
2013-7-8,72,62,54,58,55,51,92,78,57,30.08,29.92,5,0,0,0.00
2013-7-9,84,68,55,62,56,50,92,69,38,30.10,29.96,4,0,0,0.00
2013-7-10,75,62,51,58,51,43,90,68,47,30.00,29.91,9,0,0,0.00
2013-7-11,69,59,49,52,47,44,87,66,44,30.03,29.94,6,1,12,0.00
2013-7-12,71,58,48,54,47,43,90,68,41,30.07,29.99,5,0,0,0.00
2013-7-13,75,61,46,55,49,43,89,67,45,30.19,30.07,4,0,0,0.00
2013-7-14,80,63,51,55,49,39,88,64,23,30.12,29.98,7,0,0,0.00
2013-7-15,82,65,50,53,48,46,87,59,29,30.06,29.91,3,0,0,0.00
2013-7-16,87,72,56,56,50,46,72,46,28,29.92,29.80,2,0,0,0.00
2013-7-17,79,70,58,60,55,49,81,60,45,30.15,29.84,7,0,0,0.00
2013-7-18,78,64,52,60,55,50,92,73,52,30.21,30.09,3,0,0,0.00
2013-7-19,80,67,53,62,57,51,92,73,51,30.14,30.01,4,0,0,0.00
2013-7-20,79,65,53,61,55,50,92,73,47,30.04,29.92,3,0,0,0.00
2013-7-21,72,62,53,60,55,51,92,79,61,29.95,29.87,5,0,0,0.00
2013-7-22,72,62,53,59,55,51,93,77,56,30.04,29.91,5,0,0,0.00
2013-7-23,82,67,54,60,55,52,92,68,38,30.06,29.95,3,0,0,0.00
2013-7-24,81,68,55,60,55,51,90,65,40,30.03,29.96,5,0,0,0.00
2013-7-25,78,66,52,58,53,48,86,66,46,30.09,29.99,7,0,0,0.00
2013-7-26,80,65,54,58,53,48,87,67,40,30.13,30.05,5,0,0,0.00
2013-7-27,75,62,50,56,51,47,90,69,45,30.13,29.97,7,0,0,0.00
2013-7-28,72,61,51,57,52,48,88,74,57,29.99,29.91,3,0,0,0.03
2013-7-29,75,62,50,58,53,48,92,75,53,29.98,29.92,3,0,0,0.01
2013-7-30,75,64,52,58,55,49,92,74,53,30.10,29.97,5,0,0,0.00
2013-7-31,77,63,52,60,55,50,92,75,54,30.10,29.96,5,0,0,0.00
2013-8-1,75,63,52,59,54,49,92,72,53,30.01,29.95,3,0,0,0.14
2013-8-2,59,57,55,58,55,50,94,91,80,30.11,29.98,0,0,0,0.18
2013-8-3,71,61,57,62,58,55,95,88,71,30.13,30.05,3,0,0,0.01
2013-8-4,77,65,54,64,58,52,94,79,57,30.06,29.93,3,0,0,0.00
2013-8-5,80,66,55,60,56,48,93,72,33,30.00,29.90,2,0,0,0.00
2013-8-6,80,66,52,60,54,49,92,69,43,29.98,29.90,4,0,0,0.00
2013-8-7,84,68,54,60,55,50,88,65,37,29.98,29.91,5,0,0,0.00
2013-8-8,83,68,54,63,55,51,91,67,36,29.99,29.90,4,0,0,0.00
2013-8-9,82,69,54,62,56,51,89,66,44,29.93,29.79,5,0,0,0.00
2013-8-10,79,66,56,62,56,52,86,70,42,29.96,29.82,3,0,0,0.00
2013-8-11,72,62,56,62,55,50,93,77,59,30.04,29.95,3,0,0,0.09
2013-8-12,76,62,53,59,55,51,92,78,54,30.04,29.98,2,0,0,0.00
2013-8-13,76,64,55,59,55,52,90,74,52,30.07,29.92,4,0,0,0.00
2013-8-14,71,61,54,61,56,51,94,83,61,29.93,29.89,5,0,0,0.06
2013-8-15,68,61,56,63,58,55,95,91,75,29.97,29.90,2,0,0,0.02
2013-8-16,76,64,53,64,57,51,94,80,56,30.00,29.94,4,0,0,0.00
2013-8-17,72,66,58,60,56,52,86,73,62,30.04,29.96,9,0,0,0.00
2013-8-18,74,62,54,59,52,49,87,72,45,30.10,30.03,12,0,15,0.00
2013-8-19,76,63,54,59,52,48,83,70,42,30.10,30.03,6,0,12,0.00
2013-8-20,74,62,51,56,51,48,89,70,49,30.16,30.08,5,0,0,0.00
2013-8-21,82,64,49,56,50,45,87,65,34,30.10,29.95,3,0,0,0.00
2013-8-22,84,68,52,58,52,45,79,59,39,29.95,29.76,5,0,0,0.00
2013-8-23,74,62,54,58,53,48,92,74,50,29.87,29.77,12,0,12,0.02
2013-8-24,70,62,54,58,54,49,92,77,56,29.90,29.85,6,0,0,0.00
2013-8-25,74,60,49,55,50,45,89,70,48,29.93,29.83,4,0,0,0.00
2013-8-26,71,59,48,56,50,43,89,75,52,29.90,29.81,3,0,0,0.01
2013-8-27,71,61,55,58,55,51,93,80,56,29.92,29.79,3,0,0,0.13
2013-8-28,71,62,58,63,59,56,95,88,71,29.88,29.81,4,0,0,0.06
2013-8-29,66,62,58,64,60,56,95,94,93,29.93,29.83,5,0,0,0.46
2013-8-30,72,62,55,61,56,51,93,82,65,30.14,29.93,13,0,17,0.00
2013-8-31,76,62,52,60,55,51,95,80,52,30.09,29.84,1,0,0,0.00
2013-9-1,78,65,52,60,55,50,93,72,50,29.86,29.76,7,0,0,0.00
2013-9-2,74,64,56,63,57,52,93,79,60,29.92,29.83,3,0,0,0.03
2013-9-3,70,60,54,64,57,51,95,89,75,30.03,29.92,2,0,0,0.19
2013-9-4,74,60,53,62,57,52,94,90,62,30.06,30.00,3,0,0,0.02
2013-9-5,65,60,56,63,58,54,95,94,90,30.06,29.89,2,0,0,0.30
2013-9-6,66,61,57,62,58,55,94,90,84,30.07,29.89,2,0,0,0.00
2013-9-7,70,61,57,63,58,54,94,89,71,30.08,30.02,3,0,0,0.01
2013-9-8,74,62,54,64,57,52,95,84,65,30.09,30.01,3,0,0,0.01
2013-9-9,75,63,54,64,57,52,94,84,61,30.05,29.97,3,0,0,0.00
2013-9-10,79,64,52,62,56,50,94,78,49,30.00,29.89,1,0,0,0.00
2013-9-11,88,70,56,61,57,53,92,66,36,29.95,29.88,2,0,0,0.00
2013-9-12,81,68,57,62,58,53,88,72,50,29.96,29.86,3,0,0,0.00
2013-9-13,74,63,54,62,57,51,93,82,63,29.93,29.82,2,0,0,0.00
2013-9-14,73,58,53,62,55,50,95,88,68,29.87,29.74,3,0,0,0.00
2013-9-15,65,58,52,60,55,50,95,92,81,29.76,29.65,2,0,0,0.11
2013-9-16,72,62,55,58,54,45,94,76,58,29.90,29.75,6,1,14,0.01
2013-9-17,66,57,49,55,49,45,88,77,59,29.90,29.82,4,0,0,0.00
2013-9-18,67,57,49,55,50,46,90,78,58,30.05,29.89,2,0,0,0.00
2013-9-19,70,58,50,52,49,45,92,74,42,30.04,29.74,4,0,0,0.00
2013-9-20,68,56,47,56,50,44,94,84,58,29.74,29.57,3,0,0,0.32
2013-9-21,64,56,50,58,53,49,95,88,73,29.69,29.62,3,0,0,0.00
2013-9-22,58,53,49,56,51,48,95,92,83,29.67,29.45,4,0,0,0.32
2013-9-23,60,52,46,53,48,43,95,87,56,29.94,29.67,6,0,0,0.20
2013-9-24,58,51,46,52,48,44,94,89,74,29.93,29.83,3,0,0,0.16
2013-9-25,64,52,45,54,47,42,94,84,53,30.00,29.86,3,0,0,0.12
2013-9-26,63,50,41,53,45,40,94,85,58,30.11,30.00,2,0,0,0.01
2013-9-27,53,50,46,52,48,44,95,94,91,30.08,29.79,1,0,0,0.23
2013-9-28,53,50,47,52,49,46,100,95,95,29.79,29.25,9,0,16,1.54
2013-9-29,53,50,47,52,48,44,100,95,89,29.47,29.03,10,1,19,1.11
2013-9-30,50,47,43,49,45,41,95,93,89,29.85,29.27,4,0,15,0.33
2013-10-1,53,47,42,48,45,41,95,93,76,30.07,29.85,1,0,0,0.01
2013-10-2,53,48,46,52,46,44,95,94,93,30.18,30.03,1,0,0,0.00
2013-10-3,56,47,41,51,45,39,95,91,78,30.45,30.18,2,0,0,0.00
2013-10-4,55,47,40,49,44,38,95,90,74,30.47,30.35,2,0,0,0.00
2013-10-5,63,53,48,52,48,46,96,85,63,30.35,30.13,2,0,0,0.00
2013-10-6,63,53,45,53,48,43,95,82,58,30.13,29.78,5,0,14,0.00
2013-10-7,56,53,50,51,48,45,94,83,72,29.97,29.80,12,1,17,0.10
2013-10-8,59,50,41,48,43,39,92,80,56,30.10,29.94,3,0,0,0.00
2013-10-9,58,47,40,48,43,38,93,86,65,30.13,29.94,4,0,0,0.00
2013-10-10,53,48,41,49,44,39,93,88,79,30.07,29.91,3,0,0,0.02
2013-10-11,53,46,40,47,43,38,94,88,76,30.14,30.06,2,0,0,0.01
2013-10-12,57,48,41,50,44,39,94,89,67,30.21,30.07,3,0,0,0.15
2013-10-13,60,46,38,49,42,37,95,85,55,30.36,30.21,2,0,0,0.01
2013-10-14,60,46,38,49,43,36,94,88,65,30.43,30.36,2,0,0,0.00
2013-10-15,60,48,41,52,45,39,94,89,72,30.40,30.18,3,0,0,0.01
2013-10-16,62,49,43,52,45,41,95,88,66,30.20,30.15,1,0,0,0.00
2013-10-17,61,47,39,52,44,38,95,89,67,30.27,30.19,2,0,0,0.00
2013-10-18,60,46,39,52,43,37,95,90,72,30.26,30.15,2,0,0,0.01
2013-10-19,50,45,40,48,43,38,98,94,90,30.21,30.14,2,0,0,0.00
2013-10-20,50,47,45,47,45,44,95,93,89,30.22,30.15,1,0,0,0.00
2013-10-21,57,47,44,51,45,42,95,92,77,30.18,30.10,3,0,0,0.00
2013-10-22,63,47,39,54,44,38,95,90,69,30.13,30.03,2,0,0,0.01
2013-10-23,64,48,38,54,44,36,95,87,61,30.05,29.98,1,0,0,0.00
2013-10-24,60,47,40,52,44,39,99,89,72,30.09,30.01,2,0,0,0.00
2013-10-25,53,47,43,49,45,42,95,93,86,30.32,30.10,2,0,0,0.01
2013-10-26,56,48,44,48,45,42,94,89,72,30.34,30.18,2,0,0,0.00
2013-10-27,60,50,44,49,45,42,94,84,61,30.17,29.95,3,0,0,0.01
2013-10-28,58,47,38,42,36,32,82,67,40,30.02,29.94,2,0,0,0.00
2013-10-29,56,42,35,43,35,31,91,79,50,30.01,29.96,2,0,0,0.00
2013-10-30,50,43,34,45,40,32,92,89,79,30.10,30.01,3,0,0,0.02
2013-10-31,52,48,46,50,46,44,94,93,91,30.24,30.04,1,0,0,0.05
2013-11-1,52,49,46,50,47,44,94,92,90,30.24,29.77,2,0,0,0.13
2013-11-2,49,45,39,48,44,37,95,94,93,29.85,29.35,4,0,0,0.91
2013-11-3,47,38,32,44,36,30,95,92,81,30.10,29.85,1,0,0,0.02
2013-11-4,43,38,32,41,36,30,95,92,86,30.19,30.04,2,0,0,0.06
2013-11-5,43,40,35,42,38,33,95,94,93,30.25,30.02,1,0,0,0.15
2013-11-6,47,43,36,45,41,35,95,94,92,30.32,29.97,1,0,0,0.08
2013-11-7,50,46,44,47,44,42,95,93,81,29.98,29.62,6,0,15,0.28
2013-11-8,52,46,39,44,41,37,93,83,68,30.13,29.93,7,0,14,0.00
2013-11-9,48,43,38,44,41,37,94,92,84,30.13,30.09,0,0,0,0.01
2013-11-10,48,45,42,44,42,40,93,90,84,30.17,30.11,2,0,0,0.00
2013-11-11,53,47,44,44,42,40,86,82,71,30.16,29.98,2,0,0,0.00
2013-11-12,55,50,46,51,46,42,94,88,81,30.32,29.96,6,0,0,0.13
2013-11-13,52,48,42,49,45,40,95,90,81,30.41,30.29,5,0,0,0.06
2013-11-14,53,44,36,47,41,34,94,90,74,30.29,30.03,1,0,0,0.02
2013-11-15,45,42,36,44,40,34,94,91,81,30.04,29.28,6,1,14,0.18
2013-11-16,44,40,33,40,35,31,94,82,68,29.72,29.33,6,0,12,0.00
2013-11-17,48,43,37,45,40,33,94,90,82,29.86,29.72,10,0,16,0.28
2013-11-18,45,43,42,43,42,40,94,94,94,29.87,29.52,1,0,0,0.70
2013-11-19,43,37,27,40,34,25,95,90,79,30.09,29.56,4,0,0,0.02
2013-11-20,40,33,27,33,-55,-100,91,83,64,30.53,30.10,2,0,0,0.00
2013-11-21,46,40,36,34,-77,-100,94,85,74,30.68,30.53,2,0,0,0.01
2013-11-22,46,41,36,37,-73,-100,94,88,80,30.67,30.45,1,0,0,0.00
2013-11-23,46,43,38,38,-74,-100,94,86,68,30.45,30.20,0,0,0,0.00
2013-11-24,48,45,41,39,-74,-100,94,85,69,30.25,30.18,0,0,0,0.00
2013-11-25,48,45,41,42,-74,-100,94,87,77,30.30,30.25,0,0,0,0.00
2013-11-26,46,44,41,41,-77,-100,94,88,81,30.26,30.09,0,0,0,0.00
2013-11-27,51,47,43,40,-76,-100,94,81,62,30.09,29.97,0,0,0,0.00
2013-11-28,49,47,46,44,-74,-100,94,87,73,30.15,30.01,1,0,0,0.00
2013-11-29,52,47,46,47,-80,-100,94,90,83,30.28,30.15,1,0,0,0.00
2013-11-30,48,47,46,-100,-100,-100,94,93,88,30.29,30.01,0,0,0,0.00
2013-12-1,50,48,46,46,-87,-100,94,89,83,30.01,29.72,7,1,18,0.00
2013-12-2,49,44,39,34,-78,-100,94,83,53,30.12,29.76,2,0,0,0.01
2013-12-3,46,39,33,26,-73,-100,94,76,54,30.35,30.13,1,0,0,0.00
2013-12-4,46,37,30,22,-74,-100,94,69,51,30.36,30.33,2,0,0,0.01
2013-12-5,46,44,32,-100,-100,-100,94,89,54,30.34,30.17,0,0,0,0.00
2013-12-6,46,34,24,15,-75,-100,94,74,53,30.32,30.18,5,2,0,0.00
2013-12-7,46,29,16,15,-37,-100,94,75,50,30.42,30.31,5,1,0,0.00
2013-12-8,33,24,16,25,19,12,92,83,71,30.56,30.41,1,0,0,0.00
2013-12-9,33,29,22,29,26,19,98,86,75,30.56,30.46,1,0,0,0.00
2013-12-10,35,32,30,33,30,27,96,90,88,30.47,30.42,0,0,0,0.02
2013-12-11,38,34,31,35,31,28,94,89,78,30.42,30.14,1,0,0,0.00
2013-12-12,38,35,30,37,33,28,94,93,92,30.16,29.97,0,0,0,0.07
2013-12-13,43,41,38,42,39,37,95,95,94,30.41,30.11,1,0,0,0.06
2013-12-14,44,42,40,43,41,39,95,95,95,30.40,30.28,0,0,0,0.10
2013-12-15,48,44,36,46,41,34,96,92,81,30.42,30.28,4,0,0,0.20
2013-12-16,48,38,32,44,36,30,95,92,84,30.48,30.26,2,0,0,0.00
2013-12-17,44,39,33,42,38,31,95,93,81,30.26,30.05,7,0,16,0.02
2013-12-18,45,38,31,39,33,28,92,85,62,30.24,30.02,4,0,14,0.00
2013-12-19,36,32,29,31,28,25,92,86,65,30.36,30.17,0,0,0,0.00
2013-12-20,33,32,32,32,30,29,94,93,90,30.17,29.69,0,0,0,0.21
2013-12-21,38,35,33,36,34,32,95,95,94,30.15,29.87,0,0,0,0.51
2013-12-22,42,39,36,41,38,35,100,95,95,30.28,30.15,0,0,0,0.32
2013-12-23,49,44,40,44,40,36,96,86,71,30.49,30.08,15,1,32,0.25
2013-12-24,43,36,31,38,33,30,94,90,76,30.60,30.49,1,0,0,0.02
2013-12-25,41,36,31,39,35,29,100,93,91,30.54,30.38,0,0,0,0.00
2013-12-26,45,39,32,41,36,30,94,91,85,30.39,30.20,1,0,0,0.00
2013-12-27,48,38,32,45,36,30,95,92,85,30.34,30.07,7,0,14,0.12
2013-12-28,42,36,31,41,34,29,100,94,93,30.53,30.34,1,0,0,0.01
2013-12-29,44,39,32,42,37,31,95,93,91,30.49,30.31,0,0,0,0.01
2013-12-30,43,41,39,42,39,38,95,93,90,30.32,30.09,3,0,0,0.00
2013-12-31,46,43,40,44,41,38,95,94,94,30.38,30.15,0,0,0,0.08
2014-1-1,44,42,40,43,41,39,95,95,94,30.40,30.24,0,0,0,0.06
2014-1-2,44,41,38,43,40,35,95,95,84,30.24,29.84,5,0,12,0.32